Regional Weather Roundup
Issued by NWS Charleston, SC

Current Version | Previous Version | Graphics & Text | Print | Product List | Glossary On
Versions: 1 2 3 4 5 6 7 8 9 10 11 12 13 14 15 16 17 18 19 20 21 22 23 24 25 26 27 28 29 30 31 32 33 34 35 36 37 38 39 40 41 42 43 44 45 46 47 48 49 50
000 ASUS42 KCHS 232012 RWRCHS REGIONAL WEATHER ROUNDUP NATIONAL WEATHER SERVICE CHARLESTON SC 400 PM EDT THU MAR 23 2017 NOTE: "FAIR" INDICATES FEW OR NO CLOUDS BELOW 12,000 FEET WITH NO SIGNIFICANT WEATHER AND/OR OBSTRUCTIONS TO VISIBILITY. NOT ALL STATIONS ARE QUALITY CONTROLLED. USE DATA WITH CAUTION... ESPECIALLY DEWPOINT OBSERVATIONS. SCZ027-030-031-034>040-042>050-232100- ...SOUTHEAST SOUTH CAROLINA... CITY SKY/WX TMP DP RH WIND PRES REMARKS N CHARLESTON SUNNY 64 34 32 E16 30.47F WATERFRONT PRK N/A 57 48 72 E10G17 30.48F JOHNS ISLAND FAIR 61 45 55 NE17 30.48S PINOPOLIS N/A 59 37 44 E7 30.39F MONCKS CORNER CLOUDY 61 32 33 E6 30.48F HAZE SUMMERVILLE FAIR 63 34 34 E12 30.47F BEAUFORT MCAS SUNNY 66 44 45 E12 30.45F BEAUFORT ARPT FAIR 63 45 51 E14G21 30.45F HILTON HEAD IS SUNNY 59 48 67 NE15G31 30.46F WALTERBORO CLEAR 64 34 32 E9G17 30.45F ALLENDALE FAIR 66 36 32 VRB3 30.43F ...SOUTHERN MIDLANDS AND PEE DEE... CITY SKY/WX TMP DP RH WIND PRES REMARKS GEORGETOWN FAIR 55 37 50 E14 30.53S KINGSTREE FAIR 61 18 18 N6 30.49F ORANGEBURG SUNNY 63 27 25 E9 30.47F BARNWELL FAIR 66 34 30 E9 30.45F AIKEN FAIR 61 30 31 E9 30.48F MANNING FAIR 61 25 25 E5 30.48F COLUMBIA MOSUNNY 63 23 21 NE8 30.47F SUMTER SUNNY 62 22 22 NE5 30.47F FLORENCE SUNNY 60 25 26 VRB3 30.51F MYRTLE BEACH SUNNY 54 36 50 E17 30.53F N MYRTLE BEACH SUNNY 54 35 48 E13G21 30.52F $$ GAZ063-065-086>088-099>101-113>116-118-119-134>141-150-232100- ...SOUTHEAST GEORGIA... CITY SKY/WX TMP DP RH WIND PRES REMARKS SAVANNAH ARPT MOSUNNY 68 40 35 E14 30.43F HUNTER AAF SUNNY 66 49 54 E13 30.42 FORT STEWART SUNNY 68 45 44 E17G25 30.40S STATESBORO MOSUNNY 71 47 42 SE6 30.42F SYLVANIA PTCLDY N/A N/A N/A E9 30.43F CLAXTON MOCLDY 68 48 49 E12 30.41F ...CSRA...CENTRAL AND FAR SOUTHEAST GEORGIA... CITY SKY/WX TMP DP RH WIND PRES REMARKS THOMSON SUNNY 64 32 30 S6 30.48F AUGUSTA-BUSH SUNNY 68 33 27 E12 30.42F AUGUSTA-DANIEL MOSUNNY 66 28 24 E9G16 30.44F SWAINSBORO MOCLDY 68 43 40 SE9 30.42F VIDALIA CLOUDY 68 46 45 E10 30.41S EASTMAN MOCLDY 69 33 25 SE7 30.42F HAZLEHURST CLOUDY 67 51 56 E9 30.39F ALMA CLOUDY 66 51 58 E8G18 30.39S WAYCROSS CLOUDY 72 56 57 E13G21 30.39S JESUP MOCLDY 68 45 42 E15G24 30.41F BAXLEY CLOUDY 66 54 63 E7 30.40S BRUNSWICK CLOUDY 64 54 68 NE24G30 30.42S SAINT SIMONS CLOUDY 65 51 60 NE18G25 30.40S $$ SCZ027-028-034-036>038-045-046-048>050-GAZ119-141-232100- ...LAKE AND SUPPLEMENTAL COASTAL OBSERVATIONS... STATION/POSITION TIME TEMP WIND PRES WAVE SWELL AIR SEA DIR/SP/G HT/PER HT/PER/DIR (UTC) (F) (DEG/KT/KT) (MB) (FT/S) (FT/S/D) WINYAH BAY 1845 51 70/ 18 1034.0 LAKE MURRAY 1920 58 90/ 2/ 6 1031.8 ACE BASIN NERRS NOT AVBL FORT PULASKI 1948 57 61 60/ 21/ 28 1031.3F SAPELO ISLAND 1900 64 50/ 16 1030.0 $$ ANZ835-935-AMZ111-154-330-350-352-354-370-450-454-472-232100- ...C-MAN AND BUOY OBSERVATIONS... STATION/POSITION TIME TEMP WIND PRES WAVE SWELL AIR SEA DIR/SP/G HT/PER HT/PER/DIR (UTC) (F) (DEG/KT/KT) (MB) (FT/S) (FT/S/D) BUOY 41004 1850 59 71 30/ 23/ 29 1030.6 6/ 6 2/ 90/ 9 BUOY 41008 1850 62 62 60/ 21/ 25 1029.0 8/ 6 FOLLY BEACH CMAN 1900 54 50/ 24/ 27 1033.0F CAPERS NEARSHORE 1908 54 60/ 21/ 27 1032.1F FRIPP NEARSHORE 1908 56 59 60/ 21/ 27 1031.7F STATION/POSITION TIME TEMP WIND PRES WAVE SWELL AIR SEA DIR/SP/G HT/PER HT/PER/DIR (UTC) (F) (DEG/KT/KT) (MB) (FT/S) (FT/S/D) 5E ST. MARYS GA 1930 63 N/A 7/ 7 2/ 80/11 FRYING PAN BUOY 1950 54 65 40/ 17/ 23 1033.2F 6/ 7 3/100/10 BUOY 41025 1950 46 74 20/ 16/ 21 1034.7F 9/11 8/ 50/11 CAPE LOOKOUT NC 1900 45 30/ 18/ 22 1035.0F BUOY 41002 1950 60 72 40/ 19/ 23 1029.7F 7/10 7/ 40/10 BUOY 41010 NOT AVBL ST AUGUSTINE FL 2000 67 65 70/ 15/ 17 1028.5R $$

USA.gov is the U.S. government's official web portal to all federal, state and local government web resources and services.